TITAN 3C TRANSTAGE DEB, 25001

Orbit data source: Space-Track

TITAN 3C TRANSTAGE DEB, 25001 is space debris in GEO originally from a launch on Thu, 26 Sep 1968 UTC launched from the Air Force Eastern Test Range (AFETR). Debris objects in space refer to the collection of defunct objects orbiting the Earth. Examples of debris include non-operational satellites, rocket bodies, and fragments generated from explosions, collisions, or faulty payload assembly.

Not visible in the next 10 days
Identifier
25001, 1968-081H
Orbit
GEO
Country
Flag of USUS
Related business
Manufacturer
Unknown
Mission
Spacecraft
Bus & Motor
Unknown
Mass
Unknown
Launch date (UTC)
1968-09-26 (58 years ago)
Launch vehicle
Unknown
Launch site
Air Force Eastern Test Range (AFETR)
Object type
Payload
Rocket body
Debris
Shape & HBR
Unknown shape, 1.1 m
Radar Cross Section
Large (>1 m²)

Expand to show TLE details & history
Last TLE update: 12 hours ago

TLE from 12 hours ago
0 TITAN 3C TRANSTAGE DEB
1 25001U 68081H   26257.95952759 -.00000049  00000-0  00000-0 0  9998
2 25001   2.2261  54.6098 0061063 358.0700  67.2883  1.01691003119235
Epoch: 2026-09-14T23:01Z
TLE epoch observation values (Epoch: 2026-09-14T23:01:43.183Z)
Latitude
2.0179°
Longitude
141.22832°
Altitude
35,296.587 km
Speed
3.096 km/s
True Right ascension
08h 02m 21s
True Declination
2° 00' 57"
Sunlit
Object was in daylight at epoch
Visualization orbit readout
Latitude
Unknown
Longitude
Unknown
Altitude
Unknown
Speed
Unknown
Apparent Right ascension
Unknown
Apparent Declination
Unknown
Sunlit
N/A
Visualization observer readout
Local Sidereal Time
03:24:53
Azimuth
Unknown
Elevation
Unknown
Doppler factor
Unknown
Orbital elements
Apogee altitude
35,649.525 km
Perigee altitude
35,139.373 km
Semi-major axis
41,772.586 km
Eccentricity
0.00611
Inclination
2.2261°
RAAN
54.6098°
Arg. of periapsis
358.07°
True anomaly
67.93567°
Mean anomaly
67.2883°
Eccentric anomaly
67.61179°
Mean motion
0.25422 °/min
Orbital period
1,416.11 mins
BSTAR
0
Loading maneuver chart data...
Computing Atmospheric mass density...

Documentation

Showing up to 5 results
|